Regional Weather Roundup
Issued by NWS

Home | Current Version | Previous Version | Text Only | Print | Product List | Glossary Off
Versions: 1 2 3 4 5 6 7 8 9 10 11 12 13 14 15 16 17 18 19 20 21 22 23 24 25 26 27 28 29 30 31 32 33 34 35 36 37 38 39 40 41 42 43 44 45 46 47 48 49 50

000
ASUS43 KTOP 190159
RWRKS

WEATHER ROUNDUP FOR KANSAS
NATIONAL WEATHER SERVICE GOODLAND KS
800 PM CST THU DEC 18 2014

NOTE:  "FAIR" INDICATES FEW OR NO CLOUDS BELOW 12,000 FEET WITH NO
SIGNIFICANT WEATHER AND/OR OBSTRUCTIONS TO VISIBILITY.

KSZ001>006-013>018-027>032-041>047-190300-
NORTHWEST KANSAS

CITY           SKY/WX    TMP DP  RH WIND       PRES   REMARKS
GOODLAND       CLEAR     27  26  96 W5        30.11R
HAYS           CLOUDY    34  23  64 CALM      30.17S
HILL CITY      CLOUDY    32  28  85 SW6       30.17R
RUSSELL        CLOUDY    30  29  96 SE6       30.18R
$$

KSZ061>065-074>080-084>089-190300-
SOUTHWEST KANSAS

CITY           SKY/WX    TMP DP  RH WIND       PRES   REMARKS
DODGE CITY     CLOUDY    33  29  85 SE3       30.16R
ELKHART          N/A     30  25  82 S7          N/A
GARDEN CITY    CLOUDY    33  31  92 S6        30.14R
GREAT BEND     CLOUDY    30  25  80 SE3       30.19F
LIBERAL        CLOUDY    36  30  80 SE6       30.17R
$$

KSZ066>073-081>083-090>101-190300-
SOUTHEAST KANSAS

CITY           SKY/WX    TMP DP  RH WIND       PRES   REMARKS
CHANUTE        CLOUDY    34  32  92 N3        30.23R
COFFEYVILLE    CLOUDY    37  34  89 N7        30.23R
HUTCHINSON     CLOUDY    31  27  85 N3        30.21S
MEDICINE LODGE   N/A     35  30  82 E5        30.21R
NEWTON         CLOUDY    28  25  86 NE7       30.22S
PARSONS        CLOUDY    36  34  92 N3        30.24R
WICHITA INTL   CLOUDY    33  29  85 N6        30.22R
WICHITA JABRA  CLOUDY    31  28  89 N6        30.21R
WICHITA MCCONL CLOUDY    32  29  90 E6        30.22R
WINFIELD       CLOUDY    35  32  88 N5        30.24R
$$

KSZ007>012-019>026-033>040-048>060-102>105-190300-
NORTHEAST KANSAS

CITY           SKY/WX    TMP DP  RH WIND       PRES   REMARKS
CONCORDIA      CLOUDY    28  27  96 S6        30.21R
EMPORIA        CLOUDY    31  29  92 N7        30.22R
LAWRENCE       CLOUDY    32  29  88 CALM      30.25R
MANHATTAN      CLOUDY    32  29  88 NE3       30.24R
OLATHE IND     CLOUDY    32  30  92 N5        30.23R FOG
OLATHE EXE     CLOUDY    32  30  92 E3        30.22R FOG
SALINA         CLOUDY    31  27  85 CALM      30.24R
TOPEKA BILLARD CLOUDY    33  29  85 NE3       30.25R
TOPEKA FORBES  CLOUDY    33  29  85 NE5       30.23R
$$



USA.gov is the U.S. government's official web portal to all federal, state and local government web resources and services.